Starlink 32318

operational
NORAD ID: 61864 Int'l Des: 2024-202 Owner: SPXS Country: US Constellation: starlink
LEOCIRCULAR

Starlink 32318について

説明を読み込み中...

リアルタイム位置

3D地球を読み込み中...

次回通過

高度履歴

Altitude vs Time

uPlot chart will show altitude changes over time

軌道要素

1 61864U 24202V 25258.38535211 -.00000678 00000-0 -15123-4 0 9994
2 61864 43.0023 148.3085 0000833 287.6621 72.4140 15.27569430 48523
Epoch: Sep 15, 2025 • Age: 24 hours

現在のステータス

高度 482.3 km
速度 7.63 km/s
衛星直下点 18.32°N, 34.26°E
打ち上げ日 Nov 7, 2024
運用期間 0.8 years
タイプ internet

技術仕様

分類 Payload
質量 730.00 kg
乾燥質量 700.00 kg
総質量 730.00 kg
長さ 0.30 m
直径 4.10 m
スパン 29.00 m
形状 Box + pan
製造者 SPXS
バスタイプ Starlink V2M
フェーズステータス In Orbit
所有者/国 SPXS/US

大規模コンステレーション

Loading constellations...